1489226400.62,15925,7.69,73190.3,-1.43,-32.35,-33.03,0,*58
1489226401.86,15926,7.69,73190.3,-1.45,-33.03,-33.73,0,*5E
1489226403.12,15927,7.69,73190.5,-1.45,-33.49,-34.53,0,*54
1489226404.36,15928,7.69,73190.0,-1.45,-34.25,-35.07,0,*56
1489226405.62,15929,7.69,73188.3,-1.45,-34.35,-35.07,0,*56
1489226406.88,15930,7.69,73190.3,-1.45,-33.27,-33.89,0,*5A
1489226408.16,15931,7.69,73188.8,-1.43,-32.85,-33.61,0,*52
1489226409.42,15932,7.69,73184.0,-1.43,-34.19,-34.89,0,*53
1489226410.68,15933,7.69,73186.0,-1.43,-32.91,-33.73,0,*56
1489226411.94,15934,7.69,73180.8,-1.43,-32.75,-33.55,0,*5F
1489226413.18,15935,7.69,73184.3,-1.43,-32.51,-33.37,0,*5C
1489226414.45,15936,7.69,73186.0,-1.43,-32.69,-33.43,0,*57
1489226415.69,15937,7.69,73190.8,-1.39,-32.39,-33.15,0,*5D
1489226416.94,15938,7.69,73192.0,-1.39,-33.31,-33.95,0,*53
1489226418.2,15939,7.69,73184.8,-1.39,-34.41,-35.07,0,*5F
1489226419.45,15940,7.69,73180.0,-1.39,-32.85,-33.55,0,*5E
1489226420.71,15941,7.69,73180.0,-1.39,-32.79,-33.55,0,*5C
1489226421.97,15942,7.69,73178.0,-1.31,-33.15,-34.01,0,*5A
1489226423.25,15943,7.69,73174.3,-1.39,-32.85,-33.73,0,*59
1489226424.52,15944,7.69,73172.8,-1.35,-32.57,-33.27,0,*5C
1489226425.77,15945,7.69,73180.8,-1.35,-33.49,-34.41,0,*54
1489226427.05,15946,7.69,73180.5,-1.31,-32.79,-33.49,0,*5E
1489226428.33,15947,7.69,73180.3,-1.31,-33.49,-34.35,0,*51
1489226429.57,15948,7.69,73182.0,-1.31,-32.91,-33.61,0,*5C
1489226430.85,15949,7.69,73178.0,-1.31,-33.09,-33.73,0,*5E
1489226432.11,15950,7.69,73180.0,-1.29,-32.45,-33.09,0,*5B
1489226433.37,15951,7.69,73180.3,-1.27,-32.75,-33.55,0,*5E
1489226434.63,15952,7.69,73186.5,-1.27,-32.75,-33.55,0,*5D
1489226435.86,15953,7.69,73182.5,-1.27,-32.35,-32.91,0,*51
1489226437.05,15954,7.69,73190.8,-1.25,-32.23,-33.03,0,*59
1489226438.28,15955,7.69,73196.3,-1.25,-31.79,-32.45,0,*57
1489226439.57,15956,7.69,73192.0,-1.23,-32.07,-32.79,0,*57
1489226440.85,15957,7.69,73194.5,-1.23,-32.97,-33.61,0,*57
1489226442.08,15958,7.69,73188.5,-1.21,-32.57,-33.31,0,*53
1489226443.28,15959,7.69,73186.0,-1.21,-33.67,-34.41,0,*50
1489226444.56,15960,7.69,73192.0,-1.19,-33.27,-34.01,0,*51
1489226445.79,15961,7.69,73190.5,-1.21,-32.01,-32.97,0,*57
1489226447.03,15962,7.69,73192.8,-1.21,-32.01,-32.75,0,*58
1489226448.29,15963,7.69,73194.3,-1.19,-31.95,-33.21,0,*5C
1489226449.54,15964,7.69,73196.5,-1.17,-33.49,-34.19,0,*5A
1489226450.78,15965,7.69,73196.5,-1.15,-32.51,-33.31,0,*5C
1489226452.0,15966,7.69,73198.0,-1.15,-32.69,-33.55,0,*56
1489226453.23,15967,7.69,73198.0,-1.17,-32.51,-33.27,0,*5B
1489226454.48,15968,7.75,73196.3,-1.15,-32.97,-33.61,0,*5E
1489226455.69,15969,7.75,73200.8,-1.15,-33.55,-34.25,0,*57
1489226456.94,15970,7.69,73198.0,-1.15,-32.69,-33.43,0,*56
1489226458.22,15971,7.69,73206.8,-1.13,-34.31,-35.23,0,*5A
1489226459.45,15972,7.69,73198.0,-1.13,-33.55,-34.07,0,*5B
1489226460.69,15973,7.69,73202.0,-1.15,-33.21,-33.73,0,*5B
1489226461.93,15974,7.69,73206.0,-1.15,-32.45,-33.21,0,*58
1489226463.16,15975,7.69,73212.8,-1.11,-32.23,-32.79,0,*51
1489226464.46,15976,7.69,73206.3,-1.13,-33.73,-34.65,0,*5F
1489226465.71,15977,7.69,73210.3,-1.13,-33.61,-34.25,0,*59
1489226466.91,15978,7.69,73204.5,-1.11,-33.67,-34.25,0,*52
1489226468.14,15979,7.69,73210.5,-1.11,-32.45,-33.15,0,*56
1489226469.4,15980,7.69,73212.0,-1.11,-32.29,-33.09,0,*57
1489226470.66,15981,7.69,73198.0,-1.07,-33.27,-34.01,0,*51
1489226471.9,15982,7.69,73198.8,-1.07,-32.57,-33.31,0,*50
1489226473.14,15983,7.69,73204.5,-1.05,-32.01,-32.69,0,*5C
1489226474.37,15984,7.69,73198.3,-1.05,-32.23,-33.03,0,*56
1489226475.64,15985,7.69,73198.8,-1.01,-31.73,-32.35,0,*51
1489226476.89,15986,7.69,73192.8,-1.01,-32.45,-33.21,0,*50
1489226478.13,15987,7.69,73194.8,-1.03,-32.57,-33.27,0,*56
1489226479.39,15988,7.69,73194.8,-1.01,-32.29,-33.03,0,*54
1489226480.62,15989,7.69,73188.8,-0.99,-35.17,-35.95,0,*66
1489226481.88,15990,7.69,73190.3,-1.01,-35.17,-36.13,0,*53
1489226483.14,15991,7.69,73184.3,-1.01,-34.41,-35.07,0,*56
1489226484.38,15992,7.69,73186.3,-1.03,-34.71,-35.41,0,*56
1489226485.64,15993,7.69,73186.8,-1.03,-33.31,-34.01,0,*51
1489226486.88,15994,7.69,73184.3,-1.03,-34.31,-35.13,0,*53
1489226488.14,15995,7.75,73190.3,-1.01,-33.15,-33.77,0,*55
1489226489.43,15996,7.69,73180.5,-1.01,-32.79,-33.43,0,*5A
1489226490.67,15997,7.69,73182.8,-1.01,-32.51,-33.21,0,*55
1489226491.89,15998,7.69,73184.0,-0.99,-33.15,-33.73,0,*6C
1489226493.14,15999,7.69,73178.3,-0.99,-32.97,-33.61,0,*65
1489226494.37,16000,7.69,73178.5,-0.99,-33.21,-33.89,0,*65
1489226495.6,16001,7.69,73176.8,-0.99,-33.95,-34.65,0,*6E
1489226496.82,16002,7.69,73172.8,-0.97,-33.21,-33.83,0,*63
1489226498.05,16003,7.69,73174.8,-0.97,-32.39,-32.91,0,*68
1489226499.31,16004,7.69,73180.0,-0.97,-32.13,-32.79,0,*61
1489226500.53,16005,7.69,73180.0,-0.97,-32.91,-33.67,0,*64
1489226501.75,16006,7.69,73176.0,-0.95,-33.27,-33.95,0,*64
1489226502.98,16007,7.69,73178.8,-0.95,-33.09,-33.83,0,*6E
1489226504.23,16008,7.69,73184.5,-0.95,-33.49,-34.19,0,*61
1489226505.49,16009,7.69,73184.8,-0.93,-34.01,-34.77,0,*65
1489226506.73,16010,7.69,73186.5,-0.93,-33.77,-34.41,0,*6E
1489226507.96,16011,7.69,73184.0,-0.95,-34.01,-34.71,0,*6C
1489226509.21,16012,7.69,73190.0,-0.93,-32.91,-33.43,0,*60
1489226510.44,16013,7.69,73188.3,-0.93,-32.57,-33.15,0,*68
1489226511.73,16014,7.69,73184.8,-0.93,-32.75,-33.43,0,*6C
1489226513.01,16015,7.69,73188.8,-0.93,-32.85,-33.31,0,*67
1489226514.21,16016,7.69,73188.5,-0.91,-33.37,-34.07,0,*6C
1489226515.43,16017,7.69,73188.5,-0.91,-33.61,-34.25,0,*6E
1489226516.65,16018,7.69,73190.0,-0.91,-33.27,-33.95,0,*6F
1489226517.88,16019,7.69,73188.8,-0.91,-32.45,-33.03,0,*64
1489226519.15,16020,7.69,73194.0,-0.89,-33.61,-34.53,0,*62
1489226520.4,16021,7.69,73190.3,-0.89,-34.47,-35.07,0,*60
1489226521.65,16022,7.69,73184.8,-0.89,-33.89,-34.47,0,*63
1489226522.87,16023,7.69,73190.5,-0.89,-32.51,-33.21,0,*61
1489226524.11,16024,7.69,73188.8,-0.89,-33.55,-34.31,0,*65
1489226525.4,16025,7.69,73186.3,-0.89,-32.79,-33.43,0,*69
1489226526.68,16026,7.69,73176.3,-0.83,-33.09,-33.77,0,*61
1489226527.92,16027,7.69,73186.5,-0.85,-33.67,-34.31,0,*6B
1489226529.17,16028,7.69,73192.8,-0.83,-33.61,-34.41,0,*63
1489226530.42,16029,7.69,73190.3,-0.85,-34.31,-35.13,0,*60
1489226531.7,16030,7.75,73188.3,-0.85,-34.31,-34.95,0,*67
1489226532.98,16031,7.69,73188.3,-0.85,-32.79,-33.31,0,*65
1489226534.22,16032,7.69,73194.8,-0.85,-33.03,-33.73,0,*6C
1489226535.45,16033,7.69,73196.8,-0.85,-32.57,-33.21,0,*6A
1489226536.73,16034,7.75,73206.3,-0.83,-32.97,-33.77,0,*64
1489226537.98,16035,7.69,73200.8,-0.83,-32.39,-32.97,0,*6E
1489226539.23,16036,7.69,73196.5,-0.79,-32.63,-33.21,0,*6B
1489226540.48,16037,7.69,73194.0,-0.79,-33.09,-33.83,0,*6F
1489226541.74,16038,7.69,73192.0,-0.81,-32.85,-33.27,0,*6C
1489226542.97,16039,7.69,73198.3,-0.77,-33.03,-33.61,0,*69
1489226544.2,16040,7.69,73196.5,-0.81,-34.01,-34.71,0,*6D
1489226545.43,16041,7.69,73192.5,-0.79,-33.03,-33.55,0,*6F
1489226546.7,16042,7.75,73192.8,-0.79,-33.89,-34.53,0,*6F
1489226547.96,16043,7.69,73194.5,-0.81,-33.43,-34.01,0,*68
1489226549.23,16044,7.75,73192.8,-0.79,-33.43,-34.31,0,*6B
1489226550.47,16045,7.69,73188.3,-0.77,-33.61,-34.31,0,*64
1489226551.7,16046,7.69,73200.3,-0.79,-33.95,-34.71,0,*66
1489226552.96,16047,7.69,73204.3,-0.79,-34.83,-35.59,0,*6C
1489226554.23,16048,7.69,73198.8,-0.79,-35.23,-36.13,0,*65
1489226555.49,16049,7.69,73196.3,-0.81,-35.83,-36.61,0,*6C
1489226556.72,16050,7.69,73196.3,-0.81,-34.25,-34.95,0,*60
1489226557.93,16051,7.69,73196.8,-0.81,-34.25,-34.77,0,*6D
1489226559.16,16052,7.75,73194.8,-0.81,-34.01,-34.59,0,*64
1489226560.39,16053,7.69,73192.3,-0.81,-34.59,-35.07,0,*62
1489226561.63,16054,7.69,73188.8,-0.81,-34.01,-35.29,0,*64
1489226562.86,16055,7.75,73194.0,-0.81,-34.89,-35.53,0,*68
1489226564.15,16056,7.69,73192.3,-0.83,-33.31,-34.01,0,*6B
1489226565.37,16057,7.69,73192.5,-0.83,-33.67,-34.25,0,*6F
1489226566.61,16058,7.75,73194.8,-0.83,-34.41,-35.13,0,*67
1489226567.87,16059,7.69,73188.8,-0.83,-34.71,-35.23,0,*66
1489226569.15,16060,7.69,73192.8,-0.83,-32.85,-33.43,0,*61
1489226570.41,16061,7.69,73194.5,-0.79,-32.63,-33.21,0,*69
1489226571.63,16062,7.69,73196.5,-0.81,-33.27,-33.83,0,*64
1489226572.86,16063,7.69,73190.8,-0.79,-33.95,-34.47,0,*64
1489226574.11,16064,7.69,73200.3,-0.79,-33.55,-34.19,0,*64
1489226575.32,16065,7.69,73198.5,-0.81,-35.71,-36.55,0,*68
1489226576.6,16066,7.69,73194.3,-0.79,-34.35,-35.07,0,*69
1489226577.79,16067,7.69,73196.0,-0.81,-33.95,-34.41,0,*61
1489226579.06,16068,7.69,73192.3,-0.81,-32.75,-33.43,0,*64
1489226580.31,16069,7.69,73196.3,-0.79,-32.35,-32.85,0,*6D
1489226581.54,16070,7.75,73196.8,-0.77,-32.19,-32.69,0,*67
1489226582.8,16071,7.69,73192.5,-0.77,-32.79,-33.27,0,*6B
1489226584.03,16072,7.69,73198.8,-0.75,-33.03,-33.67,0,*62
1489226585.29,16073,7.69,73200.5,-0.75,-34.13,-34.65,0,*60
1489226586.55,16074,7.69,73204.8,-0.75,-34.13,-34.65,0,*67
1489226587.75,16075,7.75,73206.3,-0.77,-35.17,-35.77,0,*63
1489226589.02,16076,7.69,73200.3,-0.77,-35.07,-35.83,0,*6A
1489226590.23,16077,7.69,73200.8,-0.77,-33.95,-34.35,0,*6A
1489226591.46,16078,7.69,73200.8,-0.77,-34.25,-34.95,0,*63
1489226592.67,16079,7.75,73204.3,-0.77,-34.07,-34.47,0,*6D
1489226593.9,16080,7.69,73208.5,-0.77,-32.19,-32.51,0,*63
1489226595.16,16081,7.69,73208.8,-0.75,-32.39,-32.85,0,*6B
1489226596.42,16082,7.69,73200.5,-0.75,-32.63,-33.03,0,*68
1489226597.67,16083,7.69,73192.0,-0.75,-33.21,-33.73,0,*69
1489226598.89,16084,7.69,73206.8,-0.73,-34.25,-34.83,0,*63
1489226600.08,16085,7.75,73210.0,-0.73,-33.55,-34.07,0,*6E
1489226601.28,16086,7.75,73206.5,-0.73,-33.55,-34.13,0,*68
1489226602.55,16087,7.69,73198.5,-0.71,-32.97,-33.43,0,*66
1489226603.8,16088,7.69,73202.3,-0.71,-32.35,-32.75,0,*65
1489226605.05,16089,7.69,73204.5,-0.71,-32.75,-33.83,0,*68
1489226606.3,16090,7.69,73204.0,-0.71,-35.35,-36.07,0,*6A
1489226607.55,16091,7.69,73208.3,-0.69,-34.01,-34.53,0,*67
1489226608.8,16092,7.69,73208.8,-0.71,-32.51,-33.09,0,*66
1489226610.03,16093,7.69,73210.3,-0.71,-32.35,-32.69,0,*62
1489226611.31,16094,7.69,73210.5,-0.67,-32.63,-33.09,0,*66
1489226612.58,16095,7.69,73208.8,-0.67,-33.09,-33.61,0,*64
1489226613.81,16096,7.69,73212.0,-0.67,-33.03,-33.55,0,*6A
1489226615.06,16097,7.69,73208.5,-0.63,-32.57,-32.97,0,*60
1489226616.28,16098,7.75,73210.8,-0.63,-32.23,-32.57,0,*60
1489226617.56,16099,7.69,73210.0,-0.63,-32.07,-32.45,0,*64
1489226618.84,16100,7.69,73212.8,-0.59,-32.19,-32.63,0,*67
1489226620.07,16101,7.69,73208.5,-0.57,-31.91,-32.51,0,*6A
1489226621.3,16102,7.69,73202.0,-0.57,-32.51,-32.79,0,*6C
1489226622.53,16103,7.69,73196.3,-0.57,-32.91,-33.31,0,*6C
1489226623.77,16104,7.69,73202.5,-0.55,-32.19,-32.57,0,*68
1489226625.05,16105,7.69,73200.0,-0.55,-32.29,-32.75,0,*6A
1489226626.25,16106,7.75,73202.0,-0.53,-32.57,-32.91,0,*6C
1489226627.45,16107,7.75,73196.3,-0.53,-33.03,-33.55,0,*64
1489226628.65,16108,7.69,73200.0,-0.53,-32.57,-33.03,0,*68
1489226629.89,16109,7.69,73204.0,-0.51,-32.69,-33.15,0,*61
1489226631.14,16110,7.75,73210.5,-0.49,-32.85,-33.49,0,*6B
1489226632.37,16111,7.69,73204.8,-0.49,-32.39,-32.97,0,*6F
1489226633.6,16112,7.69,73202.8,-0.49,-31.95,-32.39,0,*6D
1489226634.81,16113,7.69,73206.0,-0.49,-32.23,-32.69,0,*67
1489226636.09,16114,7.75,73206.5,-0.47,-32.75,-33.09,0,*6A
1489226637.32,16115,7.69,73200.8,-0.45,-32.39,-32.79,0,*67
1489226638.55,16116,7.69,73194.3,-0.45,-32.19,-32.39,0,*62
1489226639.8,16117,7.75,73208.0,-0.43,-31.79,-32.29,0,*61
1489226641.05,16118,7.69,73214.5,-0.39,-32.63,-33.15,0,*65
1489226642.32,16119,7.69,73212.3,-0.43,-33.77,-34.31,0,*6C
1489226643.55,16120,7.75,73210.8,-0.39,-33.55,-33.95,0,*62
1489226644.8,16121,7.69,73198.8,-0.43,-34.19,-34.71,0,*6C
1489226646.02,16122,7.75,73198.5,-0.39,-32.35,-32.69,0,*65
1489226647.3,16123,7.75,73202.0,-0.39,-32.29,-32.79,0,*68
1489226648.55,16124,7.75,73198.3,-0.39,-31.73,-32.13,0,*6F
1489226649.83,16125,7.69,73196.5,-0.35,-31.91,-32.29,0,*67
1489226651.1,16126,7.69,73192.0,-0.35,-32.45,-32.97,0,*6B
1489226652.39,16127,7.75,73196.5,-0.35,-32.75,-33.31,0,*64
1489226653.64,16128,7.69,73194.5,-0.35,-32.57,-32.97,0,*66
1489226654.87,16129,7.69,73208.3,-0.33,-32.45,-32.91,0,*64
1489226656.09,16130,7.69,73218.5,-0.33,-33.89,-34.59,0,*6F
1489226657.33,16131,7.69,73206.3,-0.33,-34.83,-35.29,0,*65
1489226658.57,16132,7.69,73200.5,-0.33,-35.01,-35.83,0,*6D
1489226659.8,16133,7.69,73192.3,-0.37,-34.89,-35.41,0,*67
1489226661.01,16134,7.69,73190.5,-0.37,-33.89,-34.25,0,*64
1489226662.22,16135,7.69,73196.8,-0.37,-34.13,-34.59,0,*6A
1489226663.44,16136,7.69,73194.5,-0.37,-33.55,-33.89,0,*66
1489226664.69,16137,7.69,73202.3,-0.37,-33.31,-33.77,0,*64
1489226665.93,16138,7.69,73208.0,-0.37,-32.85,-33.37,0,*61
1489226667.17,16139,7.69,73206.3,-0.35,-32.91,-33.49,0,*6E
1489226668.37,16140,7.69,73204.5,-0.37,-33.95,-34.41,0,*68
1489226669.62,16141,7.69,73204.5,-0.35,-32.45,-32.91,0,*6C
1489226670.84,16142,7.69,73204.0,-0.37,-33.15,-33.61,0,*67
1489226672.09,16143,7.69,73206.8,-0.35,-33.27,-33.83,0,*69
1489226673.31,16144,7.69,73202.5,-0.37,-33.89,-34.47,0,*67
1489226674.57,16145,7.69,73202.8,-0.35,-32.63,-33.15,0,*61
1489226675.77,16146,7.75,73202.0,-0.33,-33.15,-33.55,0,*60
1489226677.0,16147,7.69,73202.5,-0.33,-34.07,-34.53,0,*64
1489226678.23,16148,7.69,73208.0,-0.35,-33.15,-33.67,0,*69
1489226679.51,16149,7.69,73210.3,-0.35,-32.97,-33.43,0,*65
1489226680.8,16150,7.69,73200.5,-0.35,-32.75,-33.27,0,*63
1489226681.99,16151,7.69,73198.8,-0.33,-32.23,-32.57,0,*61
1489226683.22,16152,7.69,73200.3,-0.33,-31.85,-32.23,0,*6E
1489226684.44,16153,7.75,73206.5,-0.31,-32.35,-32.57,0,*66
1489226685.67,16154,7.75,73206.0,-0.29,-32.35,-32.79,0,*64
1489226686.92,16155,7.69,73208.3,-0.27,-32.79,-33.15,0,*68
1489226688.14,16156,7.75,73208.5,-0.29,-33.15,-33.73,0,*6E
1489226689.35,16157,7.75,73204.8,-0.29,-32.13,-32.35,0,*6B
1489226690.6,16158,7.69,73204.3,-0.27,-32.19,-32.51,0,*62
1489226691.87,16159,7.75,73204.3,-0.25,-32.75,-33.27,0,*6B
1489226693.12,16160,7.69,73202.8,-0.23,-31.73,-32.13,0,*64
1489226694.37,16161,7.69,73202.3,-0.25,-31.39,-31.85,0,*61
1489226695.59,16162,7.69,73202.8,-0.21,-31.45,-31.85,0,*6D
1489226696.82,16163,7.75,73208.5,-0.17,-31.33,-31.67,0,*64
1489226698.08,16164,7.75,73204.8,-0.17,-31.51,-32.01,0,*64
1489226699.31,16165,7.69,73206.3,-0.15,-32.79,-33.37,0,*6A
1489226700.57,16166,7.75,73206.8,-0.13,-32.79,-33.15,0,*6F
1489226701.8,16167,7.69,73204.0,-0.15,-31.45,-31.91,0,*6A
1489226703.09,16168,7.75,73210.3,-0.13,-32.19,-32.79,0,*6C
1489226704.32,16169,7.75,73210.0,-0.13,-33.37,-33.95,0,*63
1489226705.54,16170,7.69,73200.3,-0.13,-33.03,-33.55,0,*60
1489226706.79,16171,7.75,73204.5,-0.11,-32.97,-33.49,0,*62
1489226707.99,16172,7.69,73202.3,-0.11,-33.21,-33.67,0,*61
1489226709.24,16173,7.75,73208.0,-0.11,-33.31,-33.73,0,*64
1489226710.5,16174,7.69,73204.0,-0.09,-33.37,-34.01,0,*5E
1489226711.74,16175,7.69,73200.8,-0.09,-33.31,-33.83,0,*54
1489226713.0,16176,7.69,73202.8,-0.11,-32.75,-33.09,0,*6D
1489226714.2,16177,7.69,73202.5,-0.11,-32.91,-33.21,0,*6C
1489226715.42,16178,7.75,73206.5,-0.11,-33.31,-33.83,0,*60
1489226716.67,16179,7.75,73204.0,-0.09,-32.29,-32.91,0,*52
1489226717.89,16180,7.69,73204.3,-0.11,-32.91,-33.49,0,*6A
1489226719.14,16181,7.75,73206.3,-0.09,-32.75,-32.91,0,*5C
1489226720.39,16182,7.75,73204.8,-0.09,-32.57,-33.09,0,*5F
1489226721.64,16183,7.69,73206.8,-0.09,-32.75,-33.21,0,*54
1489226722.87,16184,7.69,73204.5,-0.07,-32.07,-32.51,0,*5E
1489226724.07,16185,7.69,73202.0,-0.07,-31.79,-32.01,0,*50
1489226725.35,16186,7.69,73204.8,-0.05,-31.57,-31.95,0,*53
1489226726.57,16187,7.75,73204.5,-0.03,-31.57,-32.01,0,*5A
1489226727.81,16188,7.69,73206.0,-0.01,-32.13,-32.63,0,*50
1489226729.03,16189,7.75,73206.0,-0.01,-31.67,-32.13,0,*56
1489226730.24,16190,7.75,73206.3,0.01,-31.67,-31.95,0,*7E
1489226731.48,16191,7.69,73204.8,0.01,-31.95,-32.45,0,*7C
1489226732.7,16192,7.69,73204.3,0.05,-31.91,-32.35,0,*78
1489226733.91,16193,7.69,73202.0,0.05,-31.73,-32.01,0,*72
1489226735.16,16194,7.69,73206.8,0.07,-31.23,-31.79,0,*7E
1489226736.4,16195,7.75,73206.8,0.07,-32.13,-32.63,0,*77
1489226737.63,16196,7.69,73202.5,0.09,-33.09,-33.61,0,*73
1489226738.9,16197,7.69,73204.3,0.07,-32.45,-32.79,0,*7D
1489226740.12,16198,7.75,73206.8,0.09,-31.45,-31.95,0,*7E
1489226741.36,16199,7.69,73208.3,0.09,-31.61,-31.95,0,*79
1489226742.61,16200,7.69,73210.5,0.11,-32.57,-33.09,0,*42
1489226743.83,16201,7.75,73208.3,0.11,-31.79,-32.23,0,*45
1489226745.1,16202,7.75,73210.0,0.13,-31.73,-32.29,0,*44
1489226746.32,16203,7.75,73210.8,0.15,-31.57,-32.01,0,*4F
1489226747.53,16204,7.75,73210.0,0.15,-32.69,-33.15,0,*42
1489226748.75,16205,7.69,73210.3,0.17,-32.39,-32.91,0,*49
1489226749.99,16206,7.75,73212.8,0.17,-32.35,-32.75,0,*4C
1489226751.22,16207,7.75,73210.8,0.17,-31.17,-31.57,0,*4D
1489226752.47,16208,7.69,73204.8,0.17,-30.95,-31.33,0,*4B
1489226753.74,16209,7.69,73208.5,0.21,-31.85,-32.45,0,*4D
1489226754.99,16210,7.75,73212.0,0.21,-32.51,-32.85,0,*43
1489226756.26,16211,7.69,73210.3,0.21,-31.61,-31.85,0,*41
1489226757.51,16212,7.75,73208.8,0.21,-31.61,-32.01,0,*4D
1489226758.71,16213,7.75,73210.5,0.27,-32.01,-32.39,0,*44
1489226759.95,16214,7.75,73206.0,0.27,-32.97,-33.61,0,*40
1489226761.14,16215,7.75,73210.8,0.23,-32.13,-32.57,0,*4D
1489226762.34,16216,7.75,73206.8,0.23,-33.37,-34.13,0,*4F
1489226763.57,16217,7.75,73210.0,0.27,-31.91,-32.39,0,*4A
1489226764.81,16218,7.75,73204.0,0.27,-32.63,-32.97,0,*4F
1489226766.03,16219,7.69,73202.0,0.27,-32.35,-32.79,0,*4D
1489226767.25,16220,7.75,73206.8,0.27,-32.91,-33.31,0,*44
1489226768.5,16221,7.75,73206.0,0.27,-32.79,-33.27,0,*44
1489226769.69,16222,7.75,73200.5,0.27,-32.23,-32.57,0,*4E
1489226770.93,16223,7.75,73200.3,0.31,-31.91,-32.29,0,*4B
1489226772.2,16224,7.75,73200.3,0.29,-32.63,-32.97,0,*4E
1489226773.48,16225,7.69,73200.8,0.29,-33.73,-34.53,0,*41
1489226774.71,16226,7.75,73204.0,0.29,-34.77,-35.29,0,*4D
1489226775.93,16227,7.75,73200.0,0.27,-34.19,-34.77,0,*40
1489226777.17,16228,7.75,73204.5,0.27,-33.61,-34.19,0,*4F
1489226778.39,16229,7.75,73206.0,0.23,-34.25,-34.83,0,*4E
1489226779.63,16230,7.69,73200.8,0.27,-33.89,-34.53,0,*4E
1489226780.88,16231,7.69,73204.5,0.23,-34.31,-34.95,0,*45
1489226782.1,16232,7.69,73206.0,0.23,-33.15,-33.49,0,*41
1489226783.29,16233,7.75,73206.8,0.23,-33.55,-34.13,0,*4C
1489226784.54,16234,7.69,73202.0,0.23,-34.31,-34.83,0,*47
1489226785.79,16235,7.75,73204.5,0.23,-33.49,-33.77,0,*42
1489226787.06,16236,7.75,73208.8,0.21,-33.43,-34.01,0,*4F
1489226788.33,16237,7.69,73208.0,0.21,-32.85,-33.09,0,*4A
1489226789.54,16238,7.75,73210.5,0.23,-32.69,-33.21,0,*4F
1489226790.73,16239,7.69,73206.0,0.23,-33.15,-33.67,0,*46
1489226791.97,16240,7.75,73210.3,0.23,-33.77,-34.31,0,*48
1489226793.2,16241,7.75,73210.0,0.23,-33.77,-34.47,0,*48
1489226794.41,16242,7.69,73206.0,0.23,-33.89,-34.41,0,*4C
1489226795.63,16243,7.69,73206.5,0.23,-32.45,-33.03,0,*4D
1489226796.83,16244,7.75,73208.8,0.23,-34.07,-34.71,0,*48
1489226798.03,16245,7.75,73208.0,0.23,-33.21,-34.07,0,*4B
1489226799.25,16246,7.75,73208.5,0.23,-33.73,-34.41,0,*4D
1489226800.45,16247,7.75,73208.0,0.23,-34.07,-34.77,0,*4D
1489226801.7,16248,7.75,73212.5,0.21,-34.35,-35.01,0,*41
1489226802.95,16249,7.69,73204.0,0.21,-34.71,-35.07,0,*46
1489226804.18,16250,7.75,73210.8,0.19,-35.83,-36.43,0,*4A
1489226805.42,16251,7.75,73210.3,0.19,-35.41,-36.13,0,*40
1489226806.65,16252,7.69,73206.0,0.17,-34.77,-35.29,0,*43
1489226807.88,16253,7.75,73208.5,0.15,-34.77,-35.53,0,*4D
1489226809.08,16254,7.69,73208.8,0.15,-35.13,-35.89,0,*4E
1489226810.31,16255,7.69,73208.0,0.15,-35.07,-35.71,0,*4D
1489226811.54,16256,7.75,73214.8,0.13,-35.01,-35.71,0,*4E
1489226812.81,16257,7.69,73208.0,0.11,-35.35,-35.95,0,*40
1489226814.09,16258,7.69,73208.8,0.13,-34.95,-35.53,0,*4C
1489226815.33,16259,7.75,73210.0,0.11,-34.25,-34.95,0,*4F
1489226816.51,16260,7.75,73210.0,0.09,-33.55,-33.95,0,*7B
1489226817.73,16261,7.69,73208.0,0.09,-33.95,-34.53,0,*7B
1489226819.0,16262,7.69,73204.5,0.13,-32.29,-32.75,0,*47
1489226820.22,16263,7.75,73204.5,0.13,-33.67,-34.25,0,*4E
1489226821.49,16264,7.69,73202.3,0.13,-32.97,-33.31,0,*45
1489226822.74,16265,7.69,73204.3,0.13,-31.91,-32.39,0,*48
1489226823.96,16266,7.75,73204.3,0.15,-32.57,-32.97,0,*40
1489226825.18,16267,7.75,73204.8,0.17,-34.07,-34.71,0,*4E
1489226826.41,16268,7.75,73202.5,0.15,-33.49,-34.07,0,*4F
1489226827.65,16269,7.75,73200.0,0.15,-33.31,-33.77,0,*41
1489226828.89,16270,7.75,73200.3,0.17,-33.89,-34.59,0,*43
1489226830.14,16271,7.75,73204.5,0.15,-33.27,-33.77,0,*4F
1489226831.39,16272,7.69,73204.0,0.17,-34.71,-35.35,0,*4A
1489226832.61,16273,7.75,73202.5,0.15,-34.89,-35.65,0,*4B
1489226833.83,16274,7.75,73198.5,0.15,-35.13,-35.65,0,*4E
1489226835.05,16275,7.75,73198.8,0.15,-34.19,-34.59,0,*4A
1489226836.3,16276,7.75,73196.8,0.15,-33.09,-33.43,0,*43
1489226837.55,16277,7.75,73196.0,0.15,-33.49,-33.89,0,*40
1489226838.79,16278,7.75,73194.5,0.17,-33.89,-34.59,0,*4B
1489226840.01,16279,7.75,73200.5,0.15,-34.19,-34.59,0,*46
1489226841.24,16280,7.75,73212.5,0.15,-33.27,-33.67,0,*40
1489226842.47,16281,7.75,73212.8,0.15,-34.07,-34.53,0,*44
1489226843.69,16282,7.75,73214.0,0.15,-34.19,-34.89,0,*4F
1489226844.95,16283,7.75,73206.8,0.17,-33.77,-34.35,0,*44
1489226846.2,16284,7.75,73204.5,0.15,-33.09,-33.49,0,*44
1489226847.41,16285,7.75,73214.5,0.17,-32.23,-32.57,0,*40
1489226848.62,16286,7.75,73210.8,0.17,-32.39,-32.91,0,*42
1489226849.84,16287,7.75,73200.0,0.17,-34.25,-34.89,0,*47
1489226851.06,16288,7.75,73200.0,0.19,-32.85,-33.21,0,*4F
1489226852.31,16289,7.69,73204.8,0.19,-32.45,-32.85,0,*4D
1489226853.59,16290,7.75,73202.0,0.21,-32.45,-32.75,0,*41
1489226854.8,16291,7.75,73204.5,0.21,-33.21,-33.55,0,*40
1489226856.08,16292,7.75,73198.3,0.21,-31.95,-32.45,0,*4E
1489226857.3,16293,7.75,73198.3,0.27,-32.23,-32.63,0,*43
1489226858.54,16294,7.75,73202.0,0.27,-32.97,-33.49,0,*42
1489226859.76,16295,7.75,73200.5,0.27,-32.19,-32.57,0,*4B
1489226861.0,16296,7.75,73200.8,0.29,-32.35,-32.75,0,*48
1489226862.22,16297,7.69,73200.5,0.31,-33.03,-33.43,0,*40
1489226863.45,16298,7.75,73206.8,0.31,-32.69,-33.09,0,*4C
1489226864.68,16299,7.75,73204.5,0.29,-33.61,-34.25,0,*44
1489226865.88,16300,7.75,73206.5,0.31,-32.57,-32.91,0,*41
1489226867.1,16301,7.75,73200.3,0.31,-33.77,-34.47,0,*4E
1489226868.32,16302,7.75,73204.3,0.31,-33.43,-33.95,0,*42
1489226869.56,16303,7.75,73196.3,0.31,-34.35,-35.07,0,*48
1489226870.78,16304,7.75,73200.3,0.31,-33.43,-33.95,0,*44
1489226871.97,16305,7.75,73204.0,0.31,-32.91,-33.37,0,*43
1489226873.22,16306,7.75,73200.3,0.31,-34.31,-34.95,0,*43
1489226874.49,16307,7.69,73200.3,0.29,-33.43,-33.73,0,*46
1489226875.68,16308,7.75,73210.3,0.31,-32.91,-33.37,0,*4E
1489226876.9,16309,7.75,73212.8,0.31,-33.43,-34.13,0,*40
1489226878.15,16310,7.75,73210.5,0.31,-34.19,-34.65,0,*41
1489226879.4,16311,7.75,73206.5,0.31,-35.23,-35.95,0,*46
1489226880.62,16312,7.75,73204.5,0.31,-34.13,-34.53,0,*4C
1489226881.82,16313,7.69,73204.0,0.31,-33.37,-33.67,0,*4C
1489226883.06,16314,7.75,73202.8,0.29,-36.13,-36.85,0,*48
1489226884.3,16315,7.75,73198.5,0.29,-35.13,-35.65,0,*47
1489226885.55,16316,7.69,73200.5,0.29,-33.31,-33.67,0,*46
1489226886.79,16317,7.75,73204.0,0.29,-33.15,-33.61,0,*47
1489226888.06,16318,7.75,73196.5,0.29,-32.97,-33.43,0,*43
1489226889.3,16319,7.75,73200.0,0.31,-32.85,-33.09,0,*46
1489226890.55,16320,7.75,73200.8,0.29,-34.41,-34.95,0,*49
1489226891.75,16321,7.75,73206.0,0.31,-35.13,-35.77,0,*4A
1489226892.99,16322,7.69,73198.8,0.29,-38.17,-38.91,0,*4C
1489226894.19,16323,7.69,73194.5,0.23,-35.89,-36.31,0,*49
1489226895.42,16324,7.75,73196.8,0.23,-35.23,-35.89,0,*4E
1489226896.68,16325,7.75,73196.5,0.21,-34.13,-34.65,0,*4C
1489226897.88,16326,7.69,73192.0,0.23,-35.01,-35.59,0,*41
1489226899.08,16327,7.75,73202.5,0.23,-34.25,-34.77,0,*4A
1489226900.33,16328,7.75,73188.0,0.21,-34.65,-35.29,0,*49
1489226901.58,16329,7.75,73194.3,0.21,-34.31,-34.71,0,*45
1489226902.82,16330,7.75,73198.0,0.21,-33.61,-34.13,0,*4B
1489226904.06,16331,7.75,73202.8,0.21,-33.83,-34.31,0,*46
1489226905.31,16332,7.75,73206.8,0.21,-33.95,-34.53,0,*46
1489226906.51,16333,7.75,73210.3,0.23,-34.59,-35.17,0,*43
1489226907.72,16334,7.69,73206.3,0.23,-34.47,-35.01,0,*4C